Location: Arcueil
(48.7999°N, 2.3326°E)
Time: 14:22:03
(UTC+00:00)

CZ-4 R/B - Visible Passes

Search period start: 27 September 2023 00:00
Search period end: 07 October 2023 00:00
Orbit: 521 x 583 km, 97.7° (Epoch: 26 September)

Date Brightness Start Highest point End Pass type
(mag) Time Alt. Az. Time Alt. Az. Time Alt. Az.
27 Sep 2.7 19:34:43 10° SSW 19:38:18 37° W 19:41:53 10° NNW visible
28 Sep 2.5 19:30:57 10° S 19:34:36 40° W 19:38:14 10° NNW visible
29 Sep 2.3 19:27:10 10° S 19:30:52 44° W 19:34:33 10° NNW visible
30 Sep 2.1 19:23:24 10° S 19:27:08 49° W 19:30:51 10° NNW visible
01 Oct 1.9 19:19:37 10° S 19:23:23 54° W 19:27:09 10° NNW visible
02 Oct 1.7 19:15:51 10° S 19:19:38 60° W 19:23:25 10° NNW visible
03 Oct 1.5 19:12:11 11° S 19:15:51 66° WSW 19:19:40 10° NNW visible
04 Oct 1.4 19:08:38 12° S 19:12:05 74° WSW 19:15:54 10° NNW visible
05 Oct 1.2 19:05:03 14° S 19:08:18 81° WSW 19:12:07 10° NNW visible
06 Oct 1.1 19:01:28 15° SSE 19:04:30 89° WSW 19:08:20 10° NNW visible
